Location: Artiguedieu
(43.5000°N, 0.5454°E)
Time: 19:20:03
(UTC+00:00)

Explorer 7 - Pass Details

Date: 04 August 2021
Orbit: 484 x 676 km, 50.3° (Epoch: 18 September)

Event Time Altitude Azimuth Distance (km) Brightness Sun altitude
Rises 02:07:05 0° 181° (S) 2,531 - -23.1°
Reaches altitude 10° 02:11:34 10° 131° (SE) 1,661 - -22.6°
Maximum altitude 02:11:39 10° 130° (SE) 1,661 - -22.6°
Drops below altitude 10° 02:11:45 10° 128° (SE) 1,662 - -22.6°
Exits shadow 02:12:10 10° 122° (ESE) 1,678 9.3 -22.6°
Sets 02:16:16 0° 78° (ENE) 2,575 10.9 -22.1°
